Location: Asheville, NC
(35.6000°N, 82.5500°W)
Time: 20:33:26
(UTC-04:00)

YUBILEINY - Visible Passes

Search period start: 17 July 2018 00:00
Search period end: 27 July 2018 00:00
Orbit: 1478 x 1509 km, 82.5° (Epoch: 17 July)

Date Brightness Start Highest point End Pass type
(mag) Time Alt. Az. Time Alt. Az. Time Alt. Az.
17 Jul ? 05:12:46 10° S 05:21:24 65° E 05:30:02 10° NNE visible
18 Jul ? 04:24:39 10° SE 04:32:15 34° E 04:39:47 10° NNE visible
19 Jul ? 03:38:26 10° ESE 03:43:24 17° E 03:48:20 10° NE visible
19 Jul ? 05:30:10 10° S 05:38:59 84° W 05:47:48 10° N visible
20 Jul ? 04:41:10 10° SSE 04:49:36 54° E 04:58:00 10° NNE visible
21 Jul ? 03:53:30 10° SE 04:00:32 28° E 04:07:31 10° NNE visible
21 Jul ? 05:48:10 10° SSW 05:56:43 56° W 06:05:17 10° N visible
22 Jul ? 03:08:22 10° E 03:11:47 13° ENE 03:15:12 10° NE visible
22 Jul ? 04:58:20 10° S 05:07:07 82° E 05:15:53 10° N visible
23 Jul ? 04:09:41 10° SSE 04:17:49 44° E 04:25:56 10° NNE visible
24 Jul ? 03:22:31 10° SE 03:28:50 23° E 03:35:08 10° NE visible
24 Jul ? 05:16:05 10° SSW 05:24:46 67° W 05:33:30 10° N visible
25 Jul ? 04:27:11 12° S 04:35:16 69° E 04:43:56 10° NNE visible
26 Jul ? 03:38:37 11° SSE 03:46:04 37° E 03:53:47 10° NNE visible
26 Jul ? 05:34:34 11° SW 05:42:37 43° WNW 05:50:50 10° N visible
